Location: ???????
(55.3754°N, 39.3545°E)
Time: 21:08:15
(UTC+00:00)

Okean 1 Rocket - Pass Details

Date: 14 April 2026
Orbit: 601 x 625 km, 82.5° (Epoch: 16 May)

Event Time Altitude Azimuth Distance (km) Brightness Sun altitude
Exits shadow 21:53:46 43° 287° (WNW) 857 3.7 -24.6°
Maximum altitude 21:53:49 43° 289° (WNW) 857 3.8 -24.6°
Drops below altitude 10° 21:57:59 10° 2° (N) 1,970 6.7 -24.5°
Sets 22:00:19 0° 9° (N) 2,882 7.9 -24.5°
